{"data":{"norad_id":66061,"intl_designator":"2025-235D","name":"STARLINK-35566","alt_names":[],"object_type":"PAYLOAD","status":"ACTIVE","operator":null,"country":"US","launch_date":"2025-10-19","launch_site_code":"AFETR","launch_vehicle":null,"mission":null,"orbit_class":"UNKNOWN","rcs_meters":null,"size_class":null,"mass_kg":null,"dimensions":null,"purposes":["comms"],"wikipedia_slug":null,"has_3d_model":false,"image_url":null,"decayed_at":null,"tle_current":{"epoch":"2026-09-20T22:04:00.531840Z","epoch_age_seconds":66858,"freshness":"FRESH","line1":"1 66061U 25235D   26263.91945060  .00010205  00000+0  31271-3 0  9993","line2":"2 66061  53.1587  57.6233 0000780  70.7504 289.3583 15.34402015 52824","mean_motion":15.34402015,"eccentricity":7.8e-5,"inclination_deg":53.1587,"raan_deg":57.6233,"arg_perigee_deg":70.7504,"mean_anomaly_deg":289.3583,"bstar":0.00031271,"rev_number":5282,"period_min":93.847634839035,"perigee_km":462.16366613742,"apogee_km":463.23083628061,"semimajor_km":6840.834251209,"source":"CELESTRAK","updated_at":"2026-09-21T09:00:35.794307Z"}}}